Date String (YYYY-MM-DD hh:mm:ss) UTC,Instrument flags,absolute air pressure of the measurement (hPa),sample flow rate (lpm),inlet stack bypass flow (lpm),air temperature of the measurement (°C),ambient temperature measured by the external sensor (°C),aerosol sample conditioner tube jacket temperature (°C),OPC LED temperature (°C),internal box temperature (°C),relative humidity of the measurement (%),span deviation,mass concentration of particles derived from Lorenz-Mie calculation of OPC scattering (μg/m³),mass concentration of particles derived from Lorenz-Mie calculation of OPC scattering (μg/m³),mass concentration of particles derived from Lorenz-Mie calculation of OPC scattering (μg/m³)
DateTimeUTC,F1_M11,P_M11,Q1_M11,Q2_M11,T1_M11,T2_M11,T3_M11,T4_M11,T5_M11,U1_M11,ZSPAN_M11,X0_M11,X2_M11,X1_M11
2023-11-01 07:00:00,SystemResetWarning,0833.7,5.00,000.00,023.8,022.8,000.0,032.3,025.2,12.6,0002.1,0010.01,0005.95,0005.46
2023-11-01 07:01:00,SystemResetWarning,0833.7,5.00,000.00,023.8,022.8,000.0,032.3,025.2,12.6,0000.0,0009.91,0005.82,0005.34
2023-11-01 07:02:00,SystemResetWarning,0833.7,5.00,000.00,023.8,022.8,000.0,032.3,025.1,12.6,0000.0,0009.77,0005.70,0005.20
2023-11-01 07:03:00,SystemResetWarning,0833.7,5.00,000.00,023.8,022.7,000.0,032.3,025.2,12.6,0000.0,0010.31,0005.58,0005.08
2023-11-01 07:04:00,SystemResetWarning,0833.7,5.00,000.00,023.8,022.8,000.0,032.3,025.2,12.7,0000.0,0010.32,0005.53,0005.03
2023-11-01 07:05:00,SystemResetWarning,0833.7,5.00,000.00,023.8,022.8,000.0,032.3,025.2,12.8,0000.0,0010.14,0005.46,0004.96
2023-11-01 07:06:00,SystemResetWarning,0833.6,5.00,000.00,023.8,022.7,000.0,032.2,025.2,12.8,0000.0,0010.14,0005.36,0004.87
2023-11-01 07:07:00,SystemResetWarning,0833.7,5.00,000.00,023.8,022.7,000.0,032.2,025.1,12.8,0000.0,0010.29,0005.32,0004.81
2023-11-01 07:08:00,SystemResetWarning,0833.7,5.00,000.00,023.8,022.7,000.0,032.2,025.2,12.9,0002.2,0010.36,0005.32,0004.77
2023-11-01 07:09:00,SystemResetWarning,0833.7,5.00,000.00,023.7,022.7,000.0,032.2,025.1,12.9,0004.8,0010.42,0005.30,0004.74
2023-11-01 07:10:00,SystemResetWarning,0833.7,5.00,000.00,023.7,022.7,000.0,032.2,025.1,12.9,0003.6,0011.09,0005.23,0004.64
2023-11-01 07:11:00,SystemResetWarning,0833.7,5.00,000.00,023.7,022.7,000.0,032.2,025.1,12.9,0000.0,0011.89,0005.13,0004.56
2023-11-01 07:12:00,SystemResetWarning,0833.7,5.00,000.00,023.7,022.7,000.0,032.2,025.1,12.9,0001.5,0012.07,0005.11,0004.54
2023-11-01 07:13:00,SystemResetWarning,0833.7,5.00,000.00,023.7,022.7,000.0,032.2,025.1,12.9,0002.1,0012.10,0005.08,0004.52
2023-11-01 07:14:00,SystemResetWarning,0833.7,5.01,000.00,023.7,022.7,000.0,032.2,025.1,12.8,0003.6,0012.46,0005.08,0004.49
2023-11-01 07:15:00,SystemResetWarning,0833.7,5.00,000.00,023.8,022.7,000.0,032.2,025.1,12.9,0001.0,0013.16,0005.09,0004.44
2023-11-01 07:16:00,SystemResetWarning,0833.7,5.00,000.00,023.8,022.7,000.0,032.2,025.2,12.9,0000.0,0014.72,0005.06,0004.36
2023-11-01 07:17:00,SystemResetWarning,0833.7,5.00,000.00,023.8,022.7,000.0,032.2,025.2,12.9,0000.0,0014.99,0005.05,0004.31
2023-11-01 07:18:00,SystemResetWarning,0833.7,5.00,000.00,023.7,022.7,000.0,032.2,025.2,12.9,0000.0,0015.20,0004.96,0004.25
2023-11-01 07:19:00,SystemResetWarning,0833.7,5.00,000.00,023.7,022.7,000.0,032.2,025.2,12.9,0000.0,0015.60,0004.94,0004.23
2023-11-01 07:20:00,SystemResetWarning,0833.7,5.00,000.00,023.7,022.7,000.0,032.2,025.1,12.9,0000.0,0015.89,0004.96,0004.23
2023-11-01 07:21:00,SystemResetWarning,0833.7,5.00,000.00,023.7,022.7,000.0,032.2,025.1,12.9,0000.0,0015.31,0004.98,0004.26
2023-11-01 07:22:00,SystemResetWarning,0833.7,5.00,000.00,023.7,022.7,000.0,032.1,025.1,12.9,0000.0,0014.52,0005.03,0004.31
2023-11-01 07:23:00,SystemResetWarning,0833.8,5.00,000.00,023.7,022.7,000.0,032.1,025.1,12.9,0000.0,0015.11,0005.11,0004.38
2023-11-01 07:24:00,SystemResetWarning,0833.8,4.99,000.00,023.7,022.7,000.0,032.1,025.1,12.9,0000.0,0015.92,0005.22,0004.46
2023-11-01 07:25:00,SystemResetWarning,0833.7,4.99,000.00,023.7,022.7,000.0,032.1,025.1,12.8,0000.0,0016.36,0005.34,0004.56
2023-11-01 07:26:00,SystemResetWarning,0833.7,5.00,000.00,023.7,022.7,000.0,032.1,025.1,12.7,0000.0,0016.06,0005.47,0004.67
2023-11-01 07:27:00,SystemResetWarning,0833.7,5.00,000.00,023.7,022.6,000.0,032.1,025.1,12.6,0000.0,0014.53,0005.57,0004.81
2023-11-01 07:28:00,SystemResetWarning,0833.6,5.00,000.00,023.7,022.7,000.0,032.1,025.1,12.6,0000.0,0014.08,0005.71,0004.96
2023-11-01 07:29:00,SystemResetWarning,0833.6,5.00,000.00,023.7,022.7,000.0,032.1,025.1,12.6,0000.0,0013.64,0005.83,0005.06
2023-11-01 07:30:00,SystemResetWarning,0833.7,5.00,000.00,023.7,022.7,000.0,032.1,025.1,12.6,0000.0,0014.02,0005.93,0005.11
2023-11-01 07:31:00,SystemResetWarning,0833.7,5.00,000.00,023.7,022.7,000.0,032.1,025.1,12.6,0000.0,0014.64,0006.02,0005.24
2023-11-01 07:32:00,SystemResetWarning,0833.7,5.00,000.00,023.7,022.7,000.0,032.1,025.1,12.6,0000.0,0014.96,0006.20,0005.40
2023-11-01 07:33:00,SystemResetWarning,0833.6,5.00,000.00,023.7,022.6,000.0,032.1,025.1,12.6,0000.0,0015.30,0006.38,0005.57
2023-11-01 07:34:00,SystemResetWarning,0833.6,5.00,000.00,023.7,022.6,000.0,032.1,025.1,12.6,0000.0,0015.30,0006.57,0005.72
2023-11-01 07:35:00,SystemResetWarning,0833.7,5.00,000.00,023.7,022.6,000.0,032.1,025.1,12.6,0000.0,0014.37,0006.67,0005.86
2023-11-01 07:36:00,SystemResetWarning,0833.7,5.00,000.00,023.7,022.6,000.0,032.1,025.1,12.6,-000.0,0013.42,0006.75,0006.00
2023-11-01 07:37:00,SystemResetWarning,0833.7,5.00,000.00,023.7,022.6,000.0,032.1,025.1,12.6,-000.2,0013.09,0006.83,0006.13
2023-11-01 07:38:00,SystemResetWarning,0833.7,5.00,000.00,023.7,022.6,000.0,032.1,025.1,12.5,0000.0,0012.87,0006.93,0006.25
2023-11-01 07:39:00,SystemResetWarning,0833.7,5.00,000.00,023.7,022.6,000.0,032.1,025.1,12.5,0000.4,0013.35,0007.02,0006.34
2023-11-01 07:40:00,SystemResetWarning,0833.7,5.00,000.00,023.7,022.6,000.0,032.1,025.1,12.4,0000.9,0013.50,0007.12,0006.44
2023-11-01 07:41:00,SystemResetWarning,0833.7,5.00,000.00,023.7,022.6,000.0,032.1,025.1,12.5,0002.3,0013.24,0007.17,0006.55
2023-11-01 07:42:00,SystemResetWarning,0833.7,5.00,000.00,023.7,022.6,000.0,032.1,025.0,12.5,0002.6,0012.15,0007.21,0006.60
2023-11-01 07:43:00,SystemResetWarning,0833.7,5.00,000.00,023.7,022.6,000.0,032.1,025.1,12.5,0002.2,0012.02,0007.20,0006.59
2023-11-01 07:44:00,SystemResetWarning,0833.7,5.00,000.00,023.6,022.6,000.0,032.1,025.0,12.5,0002.4,0011.64,0007.16,0006.57
2023-11-01 07:45:00,SystemResetWarning,0833.7,5.00,000.00,023.6,022.6,000.0,032.1,025.0,12.6,0002.7,0011.37,0007.09,0006.54
2023-11-01 07:46:00,SystemResetWarning,0833.7,5.00,000.00,023.6,022.6,000.0,032.1,025.0,12.5,0002.6,0011.29,0007.06,0006.52
2023-11-01 07:47:00,SystemResetWarning,0833.7,5.00,000.00,023.6,022.6,000.0,032.0,025.0,12.6,0002.9,0011.95,0007.09,0006.50
2023-11-01 07:48:00,SystemResetWarning,0833.7,5.00,000.00,023.6,022.6,000.0,032.0,025.0,12.7,0003.6,0012.55,0007.07,0006.46
2023-11-01 07:49:00,SystemResetWarning,0833.7,5.00,000.00,023.6,022.6,000.0,032.0,025.0,12.7,0003.8,0012.51,0007.03,0006.41
2023-11-01 07:50:00,SystemResetWarning,0833.7,5.00,000.00,023.6,022.6,000.0,032.0,025.0,12.7,0004.0,0012.28,0007.00,0006.38
2023-11-01 07:51:00,SystemResetWarning,0833.7,5.00,000.00,023.6,022.6,000.0,032.0,025.0,12.8,0004.0,0011.92,0006.92,0006.34
2023-11-01 07:52:00,SystemResetWarning,0833.8,5.00,000.00,023.6,022.5,000.0,032.0,025.0,12.8,0003.5,0012.02,0006.88,0006.28
2023-11-01 07:53:00,SystemResetWarning,0833.8,5.00,000.00,023.6,022.5,000.0,032.0,025.0,12.8,0003.6,0012.62,0006.80,0006.22
2023-11-01 07:54:00,SystemResetWarning,0833.8,5.00,000.00,023.6,022.6,000.0,032.0,025.0,12.9,0004.4,0012.70,0006.75,0006.17
2023-11-01 07:55:00,SystemResetWarning,0833.8,5.00,000.00,023.6,022.6,000.0,032.0,025.0,12.9,0004.7,0012.58,0006.70,0006.12
2023-11-01 07:56:00,SystemResetWarning,0833.8,5.00,000.00,023.6,022.6,000.0,032.0,025.0,12.9,0004.4,0012.63,0006.67,0006.08
2023-11-01 07:57:00,SystemResetWarning,0833.8,5.00,000.00,023.6,022.6,000.0,032.0,025.0,12.9,0004.1,0012.61,0006.62,0006.04
2023-11-01 07:58:00,SystemResetWarning,0833.8,5.00,000.00,023.6,022.6,000.0,032.0,025.0,13.0,0000.0,0012.35,0006.55,0006.00
2023-11-01 07:59:00,SystemResetWarning,0833.8,5.00,000.00,023.6,022.5,000.0,032.0,025.0,12.9,0001.7,0012.28,0006.51,0005.97
